Weather History for Idabel, OK

Change the Weather History Date:

Friday, October 11, 2013

  Actual Average (KDEQ) Record (KDEQ)
Temperature  
Mean Temperature 68 °F 65 °F  
Max Temperature 82 °F 77 °F 95 °F (1963)
Min Temperature 55 °F 52 °F 31 °F (2000)
Degree Days  
Heating Degree Days 0 3  
Month to date heating degree days 25  
Since 1 July heating degree days 34  
Cooling Degree Days 4 2  
Month to date cooling degree days 36  
Year to date cooling degree days 1901  
Growing Degree Days 18 (Base 50)    
Moisture  
Dew Point 61 °F    
Average Humidity 74    
Maximum Humidity 100    
Minimum Humidity 51    
Precipitation  
Precipitation 0.00 in 0.13 in 2.98 in (2014)
Month to date precipitation 1.62  
Year to date precipitation 36.82  
Snow  
Snow 0.00 in - - ()
Month to date snowfall  
Since 1 July snowfall  
Since 1 September snowfall  
Snow Depth -    
Sea Level Pressure  
Sea Level Pressure 29.93 in    
Wind  
Wind Speed 7 mph (SE)    
Max Wind Speed 15 mph    
Max Gust Speed 20 mph    
Visibility 9 miles    
Events      
T = Trace of Precipitation, MM = Missing Value Source: NWS Daily Summary

Daily Weather History Graph

Daily Weather History Graph

Search for Another Location

Airport:

Trip Planner

Search our weather history database for the weather conditions in past years. The results will help you decide how hot, cold, wet, or windy it might be!

Date:

Astronomy

Oct. 11, 2013 Rise Set
Actual Time 7:21 AM CDT 6:50 PM CDT
Civil Twilight 6:56 AM CDT 7:15 PM CDT
Nautical Twilight 6:27 AM CDT 7:44 PM CDT
Astronomical Twilight 5:58 AM CDT 8:12 PM CDT
Moon 1:55 PM CDT (10/11) No Moon Set
Length of Visible Light 12h 18m
Length of Day
11h 28m
Waxing Crescent, 47% of the Moon is Illuminated
Oct 11
Waxing Crescent
Oct 11
First Quarter
Oct 18
Full
Oct 26
Last Quarter
Nov 3
New

Hourly Weather History & Observations

Time (CDT) Temp. Heat Index Dew Point Humidity Pressure Visibility Wind Dir Wind Speed Gust Speed Precip Events Conditions
12:15 AM 64.4 °F - 55.4 °F 73% 29.95 in 10.0 mi ESE 6.9 mph - N/A   Clear
12:35 AM 62.6 °F - 53.6 °F 72% 29.95 in 10.0 mi East 8.1 mph - N/A   Clear
12:55 AM 60.8 °F - 53.6 °F 77% 29.94 in 10.0 mi East 8.1 mph - N/A   Clear
1:15 AM 60.8 °F - 55.4 °F 82% 29.95 in 10.0 mi ESE 6.9 mph - N/A   Clear
1:55 AM 60.8 °F - 55.4 °F 82% 29.94 in 10.0 mi East 5.8 mph - N/A   Clear
2:15 AM 60.8 °F - 55.4 °F 82% 29.94 in 10.0 mi ESE 5.8 mph - N/A   Clear
2:35 AM 60.8 °F - 55.4 °F 82% 29.94 in 10.0 mi ESE 5.8 mph - N/A   Clear
2:55 AM 60.8 °F - 55.4 °F 82% 29.94 in 10.0 mi East 6.9 mph - N/A   Clear
3:15 AM 59.0 °F - 55.4 °F 88% 29.94 in 10.0 mi ESE 5.8 mph - N/A   Clear
3:35 AM 59.0 °F - 55.4 °F 88% 29.95 in 10.0 mi East 3.5 mph - N/A   Clear
3:55 AM 59.0 °F - 53.6 °F 82% 29.95 in 7.0 mi Calm Calm - N/A   Clear
4:15 AM 57.2 °F - 53.6 °F 88% 29.95 in 5.0 mi Calm Calm - N/A   Clear
4:35 AM 57.2 °F - 55.4 °F 94% 29.95 in 10.0 mi ESE 5.8 mph - N/A   Clear
4:55 AM 59.0 °F - 55.4 °F 88% 29.95 in 10.0 mi SE 5.8 mph - N/A   Clear
5:15 AM 59.0 °F - 57.2 °F 94% 29.95 in 10.0 mi ESE 5.8 mph - N/A   Clear
5:35 AM 59.0 °F - 55.4 °F 88% 29.96 in 7.0 mi Calm Calm - N/A   Clear
5:55 AM 59.0 °F - 55.4 °F 88% 29.96 in 7.0 mi East 3.5 mph - N/A   Clear
6:15 AM 57.2 °F - 55.4 °F 94% 29.96 in 7.0 mi Calm Calm - N/A   Clear
6:35 AM 57.2 °F - 53.6 °F 88% 29.96 in 4.0 mi Calm Calm - N/A   Clear
6:55 AM 55.4 °F - 53.6 °F 94% 29.96 in 4.0 mi Calm Calm - N/A   Clear
7:15 AM 55.4 °F - 53.6 °F 94% 29.97 in 1.8 mi Calm Calm - N/A   Unknown
7:35 AM 55.4 °F - 53.6 °F 94% 29.97 in 2.0 mi Calm Calm - N/A   Clear
7:55 AM 55.4 °F - 53.6 °F 94% 29.98 in 2.5 mi Calm Calm - N/A   Clear
8:15 AM 59.0 °F - 55.4 °F 88% 29.99 in 2.5 mi ENE 4.6 mph - N/A   Scattered Clouds
8:35 AM 59.0 °F - 57.2 °F 94% 29.99 in 3.0 mi East 3.5 mph - N/A   Mostly Cloudy
8:55 AM 60.8 °F - 59.0 °F 94% 29.99 in 4.0 mi ESE 4.6 mph - N/A   Mostly Cloudy
9:15 AM 60.8 °F - 59.0 °F 94% 29.99 in 7.0 mi ESE 3.5 mph - N/A   Mostly Cloudy
9:35 AM 62.6 °F - 62.6 °F 100% 29.99 in 7.0 mi SSE 5.8 mph - N/A   Scattered Clouds
9:55 AM 68.0 °F - 64.4 °F 88% 29.99 in 10.0 mi SSE 6.9 mph - N/A   Scattered Clouds
10:15 AM 69.8 °F - 62.6 °F 78% 29.98 in 10.0 mi SSE 9.2 mph - N/A   Clear
10:35 AM 71.6 °F - 62.6 °F 73% 29.98 in 10.0 mi South 11.5 mph - N/A   Clear
10:55 AM 73.4 °F - 62.6 °F 69% 29.97 in 10.0 mi South 11.5 mph - N/A   Clear
11:15 AM 77.0 °F - 62.6 °F 61% 29.97 in 10.0 mi South 13.8 mph - N/A   Clear
11:35 AM 78.8 °F - 62.6 °F 57% 29.97 in 10.0 mi South 13.8 mph - N/A   Scattered Clouds
11:55 AM 78.8 °F - 62.6 °F 57% 29.97 in 10.0 mi SSW 12.7 mph 17.3 mph N/A   Scattered Clouds
12:15 PM 80.6 °F 81.8 °F 62.6 °F 54% 29.96 in 10.0 mi South 10.4 mph 19.6 mph N/A   Scattered Clouds
12:35 PM 80.6 °F 81.8 °F 62.6 °F 54% 29.96 in 10.0 mi SSW 10.4 mph - N/A   Scattered Clouds
12:55 PM 78.8 °F - 62.6 °F 57% 29.94 in 10.0 mi South 6.9 mph - N/A   Mostly Cloudy
1:15 PM 80.6 °F 82.3 °F 64.4 °F 58% 29.93 in 10.0 mi South 11.5 mph 17.3 mph N/A   Scattered Clouds
1:35 PM 82.4 °F 83.4 °F 62.6 °F 51% 29.91 in 10.0 mi SSE 13.8 mph 18.4 mph N/A   Scattered Clouds
1:55 PM 82.4 °F 83.9 °F 64.4 °F 54% 29.91 in 10.0 mi SSE 11.5 mph 18.4 mph N/A   Scattered Clouds
2:15 PM 82.4 °F 83.4 °F 62.6 °F 51% 29.90 in 10.0 mi SSE 12.7 mph - N/A   Scattered Clouds
2:35 PM 82.4 °F 83.9 °F 64.4 °F 54% 29.89 in 10.0 mi South 15.0 mph - N/A   Mostly Cloudy
2:55 PM 82.4 °F 83.9 °F 64.4 °F 54% 29.89 in 10.0 mi South 12.7 mph 17.3 mph N/A   Scattered Clouds
3:15 PM 82.4 °F 83.9 °F 64.4 °F 54% 29.88 in 10.0 mi SSE 12.7 mph 16.1 mph N/A   Scattered Clouds
3:35 PM 80.6 °F 82.3 °F 64.4 °F 58% 29.88 in 10.0 mi SSE 11.5 mph - N/A   Scattered Clouds
3:55 PM 80.6 °F 82.3 °F 64.4 °F 58% 29.88 in 10.0 mi SSE 10.4 mph 17.3 mph N/A   Scattered Clouds
4:15 PM 80.6 °F 82.3 °F 64.4 °F 58% 29.89 in 10.0 mi South 13.8 mph - N/A   Scattered Clouds
4:35 PM 82.4 °F 83.9 °F 64.4 °F 54% 29.88 in 10.0 mi SSE 13.8 mph - N/A   Clear
4:55 PM 80.6 °F 82.3 °F 64.4 °F 58% 29.88 in 10.0 mi SSE 12.7 mph - N/A   Clear
5:15 PM 80.6 °F 82.3 °F 64.4 °F 58% 29.89 in 10.0 mi SSE 12.7 mph 17.3 mph N/A   Clear
5:35 PM 80.6 °F 82.3 °F 64.4 °F 58% 29.89 in 10.0 mi South 8.1 mph - N/A   Clear
5:55 PM 80.6 °F 82.3 °F 64.4 °F 58% 29.89 in 10.0 mi SSE 9.2 mph - N/A   Scattered Clouds
6:15 PM 78.8 °F - 64.4 °F 61% 29.89 in 10.0 mi SSE 9.2 mph - N/A   Scattered Clouds
6:35 PM 78.8 °F - 64.4 °F 61% 29.89 in 10.0 mi SSE 5.8 mph - N/A   Scattered Clouds
6:55 PM 77.0 °F - 64.4 °F 65% 29.89 in 10.0 mi SE 6.9 mph - N/A   Mostly Cloudy
7:15 PM 77.0 °F - 64.4 °F 65% 29.90 in 10.0 mi SSE 5.8 mph - N/A   Mostly Cloudy
7:35 PM 77.0 °F - 64.4 °F 65% 29.90 in 10.0 mi SE 4.6 mph - N/A   Mostly Cloudy
7:55 PM 75.2 °F - 64.4 °F 69% 29.90 in 10.0 mi SE 5.8 mph - N/A   Scattered Clouds
8:15 PM 75.2 °F - 64.4 °F 69% 29.90 in 10.0 mi SE 11.5 mph - N/A   Scattered Clouds
8:35 PM 75.2 °F - 64.4 °F 69% 29.90 in 10.0 mi SE 11.5 mph - N/A   Clear
8:55 PM 73.4 °F - 64.4 °F 73% 29.90 in 10.0 mi SE 10.4 mph - N/A   Clear
9:15 PM 73.4 °F - 64.4 °F 73% 29.91 in 10.0 mi SE 8.1 mph - N/A   Clear
9:35 PM 73.4 °F - 64.4 °F 73% 29.92 in 10.0 mi SE 6.9 mph - N/A   Scattered Clouds
9:55 PM 73.4 °F - 64.4 °F 73% 29.92 in 10.0 mi SE 5.8 mph - N/A   Mostly Cloudy
10:15 PM 73.4 °F - 64.4 °F 73% 29.92 in 10.0 mi SSE 9.2 mph - N/A   Mostly Cloudy
10:35 PM 71.6 °F - 64.4 °F 78% 29.93 in 10.0 mi SSE 8.1 mph - N/A   Scattered Clouds
10:55 PM 71.6 °F - 64.4 °F 78% 29.93 in 10.0 mi SSE 8.1 mph - N/A   Scattered Clouds
11:15 PM 71.6 °F - 64.4 °F 78% 29.94 in 10.0 mi SSE 8.1 mph - N/A   Clear
11:35 PM 71.6 °F - 64.4 °F 78% 29.93 in 10.0 mi SSE 9.2 mph - N/A   Scattered Clouds
11:55 PM 71.6 °F - 64.4 °F 78% 29.93 in 10.0 mi SSE 8.1 mph - N/A   Scattered Clouds